 day,  time,  air_temp(C),  RH(%),  ground_temp10cm(C),  ground_temp20cm(C),  ground_temp40cm(C),  precipitation(mm/h),  Solar_Radiation(MJ/m2h),  lack, 
 05/09/01, 01:00,  15.8,  99,  19.5,  20.0,  19.7,   0.0,  0.00, 
 05/09/01, 02:00,  16.9,  97,  19.3,  20.0,  19.8,   0.0,  0.00, 
 05/09/01, 03:00,  16.4,  99,  19.1,  20.0,  19.7,   0.0,  0.00, 
 05/09/01, 04:00,  16.9,  97,  19.0,  19.9,  19.7,   0.0,  0.00, 
 05/09/01, 05:00,  16.7,  98,  18.9,  19.7,  19.7,   0.0,  0.00, 
 05/09/01, 06:00,  17.1,  96,  18.8,  19.8,  19.7,   0.0,  0.01, 
 05/09/01, 07:00,  18.0,  98,  18.7,  19.7,  19.8,   0.0,  0.46, 
 05/09/01, 08:00,  19.6,  88,  18.8,  19.6,  19.7,   0.0,  1.43, 
 05/09/01, 09:00,  21.6,  80,  19.0,  19.6,  19.8,   0.0,  2.25, 
 05/09/01, 10:00,  21.1,  84,  19.4,  19.6,  19.8,   0.0,  2.44, 
 05/09/01, 11:00,  22.4,  81,  20.0,  19.5,  19.7,   0.0,  2.95, 
 05/09/01, 12:00,  23.4,  80,  20.8,  19.6,  19.8,   0.0,  2.08, 
 05/09/01, 13:00,  24.1,  77,  21.6,  19.7,  19.8,   0.0,  3.31, 
 05/09/01, 14:00,  24.6,  63,  22.3,  19.8,  19.8,   0.5,  2.99, 
 05/09/01, 15:00,  25.0,  70,  22.4,  20.0,  19.8,   0.0,  2.63, 
 05/09/01, 16:00,  22.9,  77,  22.5,  20.2,  19.8,   0.0,  1.87, 
 05/09/01, 17:00,  22.2,  83,  22.4,  20.4,  19.8,   0.0,  1.20, 
 05/09/01, 18:00,  21.3,  86,  22.3,  20.6,  19.8,   0.0,  0.43, 
 05/09/01, 19:00,  19.5,  94,  22.1,  20.7,  19.8,   0.0,  0.01, 
 05/09/01, 20:00,  18.2,  99,  21.8,  20.8,  19.8,   0.0,  0.00, 
 05/09/01, 21:00,  17.7,  99,  21.6,  20.8,  19.8,   0.0,  0.00, 
 05/09/01, 22:00,  17.6,  99,  21.3,  20.9,  19.8,   0.0,  0.00, 
 05/09/01, 23:00,  17.5,  99,  21.1,  20.9,  19.8,   0.0,  0.00, 
 05/09/02, 00:00,  17.6,  99,  20.9,  20.8,  19.8,   0.0,  0.00, 
 05/09/02, 01:00,  17.2,  99,  20.7,  20.8,  19.7,   0.0,  0.00, 
 05/09/02, 02:00,  17.5,  99,  20.5,  20.7,  19.9,   0.0,  0.00, 
 05/09/02, 03:00,  17.8,  99,  20.3,  20.7,  19.9,   0.0,  0.00, 
 05/09/02, 04:00,  17.2,  99,  20.2,  20.6,  19.9,   0.0,  0.00, 
 05/09/02, 05:00,  18.1,  99,  20.1,  20.6,  19.9,   0.0,  0.00, 
 05/09/02, 06:00,  17.8,  99,  20.0,  20.4,  19.8,   0.0,  0.00, 
 05/09/02, 07:00,  18.2,  99,  19.9,  20.4,  19.9,   0.0,  0.43, 
 05/09/02, 08:00,  21.3,  84,  19.9,  20.4,  19.9,   0.0,  1.03, 
 05/09/02, 09:00,  21.4,  91,  20.0,  20.3,  19.9,   0.0,  1.85, 
 05/09/02, 10:00,  23.1,  87,  20.1,  20.3,  19.9,   0.0,  2.37, 
 05/09/02, 11:00,  23.6,  87,  20.7,  20.2,  19.9,   0.0,  2.03, 
 05/09/02, 12:00,  24.9,  77,  21.3,  20.3,  19.9,   0.0,  2.26, 
 05/09/02, 13:00,  25.3,  77,  22.0,  20.3,  19.9,   0.0,  2.77, 
 05/09/02, 14:00,  24.4,  77,  22.6,  20.4,  19.9,   0.0,  2.26, 
 05/09/02, 15:00,  22.9,  87,  22.8,  20.6,  19.9,   0.0,  0.97, 
 05/09/02, 16:00,  23.4,  80,  22.8,  20.8,  19.9,   0.0,  1.25, 
 05/09/02, 17:00,  22.6,  84,  22.8,  20.9,  19.9,   0.0,  1.31, 
 05/09/02, 18:00,  21.4,  93,  22.7,  21.0,  19.9,   0.0,  0.58, 
 05/09/02, 19:00,  19.9,  99,  22.5,  21.1,  19.9,   0.0,  0.01, 
 05/09/02, 20:00,  19.3,  99,  22.3,  21.2,  20.0,   0.0,  0.00, 
 05/09/02, 21:00,  20.0,  99,  22.0,  21.3,  20.0,   0.0,  0.00, 
 05/09/02, 22:00,  19.6,  99,  21.9,  21.3,  20.0,   0.0,  0.00, 
 05/09/02, 23:00,  19.2,  99,  21.8,  21.3,  20.0,   0.0,  0.00, 
 05/09/03, 00:00,  18.4,  99,  21.6,  21.3,  20.0,   0.0,  0.00, 
 05/09/03, 01:00,  18.5,  99,  21.5,  21.2,  20.0,   0.0,  0.00, 
 05/09/03, 02:00,  17.7,  99,  21.3,  21.2,  20.1,   0.0,  0.00, 
 05/09/03, 03:00,  17.7,  99,  21.1,  21.2,  20.1,   0.0,  0.00, 
 05/09/03, 04:00,  17.7,  99,  20.8,  21.0,  20.1,   0.0,  0.00, 
 05/09/03, 05:00,  16.9,  99,  20.8,  21.1,  20.1,   0.0,  0.00, 
 05/09/03, 06:00,  16.6,  99,  20.6,  21.0,  20.1,   0.0,  0.02, 
 05/09/03, 07:00,  18.3,  99,  20.4,  20.8,  20.1,   0.0,  0.38, 
 05/09/03, 08:00,  20.4,  89,  20.4,  20.9,  20.1,   0.0,  1.14, 
 05/09/03, 09:00,  22.1,  83,  20.4,  20.8,  20.1,   0.0,  1.70, 
 05/09/03, 10:00,  22.4,  92,  20.6,  20.7,  20.1,   0.0,  2.39, 
 05/09/03, 11:00,  23.2,  88,  21.2,  20.7,  20.2,   0.0,  2.84, 
 05/09/03, 12:00,  24.4,  76,  22.0,  20.7,  20.2,   0.0,  2.78, 
 05/09/03, 13:00,  24.9,  74,  22.9,  20.8,  20.2,   0.0,  3.13, 
 05/09/03, 14:00,  23.9,  73,  23.6,  20.9,  20.2,   0.0,  2.34, 
 05/09/03, 15:00,  18.6,  99,  23.7,  21.1,  20.2,   3.5,  0.52, 
 05/09/03, 16:00,  18.5,  99,  23.5,  21.3,  20.2,   0.5,  0.39, 
 05/09/03, 17:00,  20.0,  98,  23.2,  21.4,  20.2,   0.0,  0.58, 
 05/09/03, 18:00,  18.8,  99,  23.1,  21.6,  20.2,   0.0,  0.36, 
 05/09/03, 19:00,  18.1,  99,  22.8,  21.6,  20.2,   0.0,  0.00, 
 05/09/03, 20:00,  18.5,  99,  22.5,  21.7,  20.2,   0.0,  0.00, 
 05/09/03, 21:00,  18.2,  99,  22.3,  21.7,  20.2,   0.0,  0.00, 
 05/09/03, 22:00,  18.3,  99,  22.1,  21.7,  20.2,   0.0,  0.00, 
 05/09/03, 23:00,  17.7,  99,  21.9,  21.7,  20.2,   0.0,  0.00, 
 05/09/04, 00:00,  17.6,  99,  21.7,  21.6,  20.3,   0.0,  0.00, 
 05/09/04, 01:00,  16.7,  99,  21.6,  21.6,  20.3,   0.0,  0.00, 
 05/09/04, 02:00,  16.9,  99,  21.3,  21.5,  20.3,   0.0,  0.00, 
 05/09/04, 03:00,  16.5,  99,  21.1,  21.4,  20.3,   0.0,  0.00, 
 05/09/04, 04:00,  16.5,  99,  20.9,  21.4,  20.3,   0.0,  0.00, 
 05/09/04, 05:00,  15.9,  99,  20.7,  21.3,  20.3,   0.0,  0.00, 
 05/09/04, 06:00,  15.8,  99,  20.5,  21.2,  20.2,   0.0,  0.00, 
 05/09/04, 07:00,  17.0,  99,  20.4,  21.1,  20.3,   0.0,  0.31, 
 05/09/04, 08:00,  18.2,  97,  20.4,  21.0,  20.4,   0.0,  1.01, 
 05/09/04, 09:00,  18.8,  98,  20.4,  21.0,  20.4,   0.0,  1.35, 
 05/09/04, 10:00,  18.8,  94,  20.6,  20.9,  20.4,   0.0,  1.63, 
 05/09/04, 11:00,  19.4,  94,  20.9,  20.8,  20.4,   0.0,  1.70, 
 05/09/04, 12:00,  18.8,  97,  21.2,  20.8,  20.4,   0.0,  0.71, 
 05/09/04, 13:00,  19.9,  93,  21.4,  20.8,  20.4,   0.0,  1.44, 
 05/09/04, 14:00,  20.9,  89,  21.6,  20.8,  20.4,   0.0,  1.30, 
 05/09/04, 15:00,  20.9,  88,  21.8,  20.9,  20.3,   0.0,  1.12, 
 05/09/04, 16:00,  20.1,  98,  21.9,  21.0,  20.3,   0.0,  0.64, 
 05/09/04, 17:00,  18.8,  99,  22.0,  21.0,  20.3,   0.0,  0.31, 
 05/09/04, 18:00,  18.4,  99,  21.9,  21.1,  20.3,   1.0,  0.15, 
 05/09/04, 19:00,  17.4,  99,  21.7,  21.1,  20.3,  11.0,  0.00, 
 05/09/04, 20:00,  17.3,  99,  21.4,  21.2,  20.3,   0.5,  0.00, 
 05/09/04, 21:00,  17.3,  99,  21.2,  21.2,  20.3,   4.0,  0.00, 
 05/09/04, 22:00,  17.2,  99,  21.0,  21.2,  20.3,   5.0,  0.00, 
 05/09/04, 23:00,  17.1,  99,  20.6,  21.2,  20.3,  10.0,  0.00, 
 05/09/05, 00:00,  17.0,  99,  20.3,  21.0,  20.2,   0.0,  0.00, 
 05/09/05, 01:00,  17.0,  99,  20.2,  21.0,  20.4,   2.0,  0.00, 
 05/09/05, 02:00,  16.9,  99,  20.1,  20.8,  20.4,   4.0,  0.00, 
 05/09/05, 03:00,  16.8,  99,  19.9,  20.8,  20.4,   2.5,  0.00, 
 05/09/05, 04:00,  16.7,  99,  19.8,  20.7,  20.3,   2.5,  0.00, 
 05/09/05, 05:00,  16.5,  99,  19.7,  20.5,  20.3,   1.5,  0.00, 
 05/09/05, 06:00,  16.2,  99,  19.6,  20.4,  20.3,   2.0,  0.00, 
 05/09/05, 07:00,  16.3,  99,  19.5,  20.4,  20.4,   1.0,  0.00, 
 05/09/05, 08:00,  16.5,  99,  19.4,  20.3,  20.4,   1.5,  0.19, 
 05/09/05, 09:00,  16.9,  99,  19.4,  20.2,  20.4,   2.0,  0.24, 
 05/09/05, 10:00,  17.0,  99,  19.4,  20.2,  20.4,   2.5,  0.29, 
 05/09/05, 11:00,  17.1,  99,  19.5,  20.0,  20.3,   2.5,  0.44, 
 05/09/05, 12:00,  17.7,  99,  19.5,  20.0,  20.3,   1.0,  0.62, 
 05/09/05, 13:00,  18.0,  99,  19.7,  20.0,  20.3,   1.0,  0.62, 
 05/09/05, 14:00,  17.8,  99,  19.9,  20.0,  20.2,   1.0,  0.57, 
 05/09/05, 15:00,  17.9,  99,  20.0,  20.0,  20.2,   1.0,  0.49, 
 05/09/05, 16:00,  17.8,  99,  20.1,  20.0,  20.1,   0.5,  0.29, 
 05/09/05, 17:00,  17.8,  99,  20.1,  20.0,  20.1,   1.0,  0.15, 
 05/09/05, 18:00,  17.7,  99,  20.0,  19.9,  20.1,   0.0,  0.03, 
 05/09/05, 19:00,  17.6,  99,  20.0,  19.9,  20.1,   1.0,  0.00, 
 05/09/05, 20:00,  17.4,  99,  20.0,  20.0,  20.1,   1.0,  0.00, 
 05/09/05, 21:00,  17.3,  99,  19.9,  20.0,  20.0,   0.5,  0.00, 
 05/09/05, 22:00,  17.0,  99,  19.8,  20.0,  20.0,   0.0,  0.00, 
 05/09/05, 23:00,  16.2,  99,  19.8,  20.0,  20.0,   0.0,  0.00, 
 05/09/06, 00:00,  16.3,  99,  19.7,  19.9,  20.0,   0.0,  0.00, 
 05/09/06, 01:00,  16.3,  99,  19.6,  20.0,  20.1,   0.0,  0.00, 
 05/09/06, 02:00,  16.2,  99,  19.5,  20.0,  20.1,   0.0,  0.00, 
 05/09/06, 03:00,  16.4,  99,  19.4,  19.9,  20.1,   0.0,  0.00, 
 05/09/06, 04:00,  16.3,  99,  19.3,  19.9,  20.1,   0.0,  0.00, 
 05/09/06, 05:00,  17.1,  98,  19.3,  19.9,  19.9,   0.0,  0.00, 
 05/09/06, 06:00,  18.6,  87,  19.1,  19.7,  19.9,   0.0,  0.00, 
 05/09/06, 07:00,  19.7,  79,  19.1,  19.7,  19.9,   0.5,  0.14, 
 05/09/06, 08:00,  20.6,  73,  19.1,  19.7,  19.9,   0.0,  0.66, 
 05/09/06, 09:00,  21.8,  67,  19.3,  19.7,  20.0,   0.0,  1.28, 
 05/09/06, 10:00,  22.0,  69,  19.5,  19.7,  19.9,   0.0,  1.70, 
 05/09/06, 11:00,  22.5,  69,  19.9,  19.7,  20.0,   0.0,  1.97, 
 05/09/06, 12:00,  22.9,  67,  20.5,  19.7,  20.0,   0.0,  2.45, 
 05/09/06, 13:00,  23.2,  62,  21.2,  19.7,  20.0,   0.0,  2.37, 
 05/09/06, 14:00,  22.7,  67,  21.7,  19.9,  19.9,   0.0,  1.95, 
 05/09/06, 15:00,  22.6,  71,  22.0,  20.0,  19.9,   0.0,  1.33, 
 05/09/06, 16:00,  22.0,  70,  22.0,  20.1,  19.8,   0.0,  1.22, 
 05/09/06, 17:00,  21.5,  73,  22.0,  20.3,  19.9,   0.0,  0.75, 
 05/09/06, 18:00,  20.9,  72,  21.9,  20.4,  19.9,   0.0,  0.17, 
 05/09/06, 19:00,  20.8,  73,  21.7,  20.5,  19.9,   0.0,  0.00, 
 05/09/06, 20:00,  20.9,  67,  21.4,  20.6,  19.9,   0.0,  0.00, 
 05/09/06, 21:00,  20.8,  67,  21.2,  20.6,  19.9,   0.0,  0.00, 
 05/09/06, 22:00,  20.6,  66,  20.9,  20.6,  19.9,   0.0,  0.00, 
 05/09/06, 23:00,  20.2,  70,  20.7,  20.5,  19.8,   0.0,  0.00, 
 05/09/07, 00:00,  20.1,  71,  20.5,  20.6,  19.9,   0.0,  0.00, 
 05/09/07, 01:00,  20.2,  72,  20.3,  20.4,  19.8,   0.0,  0.00, 
 05/09/07, 02:00,  20.5,  70,  20.2,  20.5,  20.0,   0.0,  0.00, 
 05/09/07, 03:00,  21.0,  68,  20.0,  20.4,  20.0,   0.5,  0.00, 
 05/09/07, 04:00,  19.7,  86,  19.9,  20.3,  19.9,   0.0,  0.00, 
 05/09/07, 05:00,  19.3,  90,  19.8,  20.2,  19.9,   0.0,  0.00, 
 05/09/07, 06:00,  18.4,  98,  19.7,  20.1,  19.9,   0.5,  0.00, 
 05/09/07, 07:00,  18.0,  99,  19.6,  20.2,  20.0,   3.0,  0.01, 
 05/09/07, 08:00,  18.0,  98,  19.5,  20.0,  19.9,   5.0,  0.15, 
 05/09/07, 09:00,  18.8,  97,  19.5,  20.0,  19.9,   0.5,  1.02, 
 05/09/07, 10:00,  19.6,  99,  19.6,  20.0,  20.0,   1.0,  1.24, 
 05/09/07, 11:00,  20.0,  95,  19.8,  19.8,  19.9,   1.5,  1.34, 
 05/09/07, 12:00,  19.0,  99,  20.0,  19.8,  20.0,   0.5,  0.82, 
 05/09/07, 13:00,  20.1,  94,  20.0,  19.8,  19.9,   0.0,  0.46, 
 05/09/07, 14:00,  20.1,  95,  20.1,  19.9,  19.9,   0.5,  0.51, 
 05/09/07, 15:00,  20.1,  94,  20.1,  19.9,  20.0,   0.0,  0.37, 
 05/09/07, 16:00,  18.9,  99,  20.1,  19.9,  19.8,   0.0,  0.15, 
 05/09/07, 17:00,  18.7,  99,  20.1,  20.0,  19.8,   4.0,  0.03, 
 05/09/07, 18:00,  18.3,  99,  20.0,  20.0,  19.9,   0.0,  0.00, 
 05/09/07, 19:00,  18.0,  99,  20.0,  20.0,  19.8,   0.0,  0.00, 
 05/09/07, 20:00,  17.7,  99,  19.9,  20.0,  19.8,   0.0,  0.00, 
 05/09/07, 21:00,  17.7,  99,  19.8,  20.0,  19.8,   0.0,  0.00, 
 05/09/07, 22:00,  17.5,  99,  19.8,  19.9,  19.9,   0.0,  0.00, 
 05/09/07, 23:00,  17.2,  99,  19.7,  19.9,  19.9,   0.0,  0.00, 
 05/09/08, 00:00,  16.7,  99,  19.6,  19.9,  19.8,   0.0,  0.00, 
 05/09/08, 01:00,  15.3,  99,  19.5,  19.9,  19.8,   0.5,  0.00, 
 05/09/08, 02:00,  15.5,  99,  19.4,  19.9,  19.9,   0.0,  0.00, 
 05/09/08, 03:00,  15.8,  99,  19.3,  19.7,  19.8,   0.0,  0.00, 
 05/09/08, 04:00,  15.8,  99,  19.1,  19.7,  19.8,   0.0,  0.00, 
 05/09/08, 05:00,  14.6,  99,  19.0,  19.7,  19.9,   0.0,  0.00, 
 05/09/08, 06:00,  14.5,  99,  18.9,  19.7,  19.8,   0.0,  0.00, 
 05/09/08, 07:00,  16.4,  88,  18.7,  19.6,  19.7,   0.0,  0.37, 
 05/09/08, 08:00,  17.6,  85,  18.6,  19.6,  19.7,   0.0,  1.33, 
 05/09/08, 09:00,  18.7,  87,  18.6,  19.5,  19.8,   0.0,  1.97, 
 05/09/08, 10:00,  19.8,  94,  18.7,  19.5,  19.8,   0.0,  2.64, 
 05/09/08, 11:00,  21.1,  88,  19.3,  19.4,  19.7,   0.0,  3.00, 
 05/09/08, 12:00,  22.6,  78,  20.2,  19.4,  19.8,   0.0,  3.45, 
 05/09/08, 13:00,  23.8,  76,  21.2,  19.5,  19.8,   0.0,  2.76, 
 05/09/08, 14:00,  23.0,  70,  21.8,  19.6,  19.8,   0.0,  2.99, 
 05/09/08, 15:00,  23.0,  77,  22.0,  19.8,  19.7,   0.0,  1.89, 
 05/09/08, 16:00,  21.5,  87,  21.9,  20.0,  19.7,   0.0,  1.73, 
 05/09/08, 17:00,  19.9,  93,  21.8,  20.0,  19.7,   0.0,  1.17, 
 05/09/08, 18:00,  18.4,  99,  21.6,  20.2,  19.7,   0.0,  0.38, 
 05/09/08, 19:00,  17.5,  99,  21.5,  20.4,  19.7,   0.0,  0.00, 
 05/09/08, 20:00,  17.1,  99,  21.3,  20.5,  19.7,   0.0,  0.00, 
 05/09/08, 21:00,  16.8,  99,  21.1,  20.4,  19.7,   0.0,  0.00, 
 05/09/08, 22:00,  16.6,  99,  20.8,  20.4,  19.7,   0.0,  0.00, 
 05/09/08, 23:00,  15.9,  99,  20.7,  20.4,  19.7,   0.0,  0.00, 
 05/09/09, 00:00,  15.6,  99,  20.5,  20.5,  19.8,   0.0,  0.00, 
 05/09/09, 01:00,  14.5,  99,  20.2,  20.5,  19.8,   0.0,  0.00, 
 05/09/09, 02:00,  15.0,  95,  20.0,  20.4,  19.7,   0.0,  0.00, 
 05/09/09, 03:00,  16.8,  86,  19.8,  20.4,  19.7,   0.0,  0.00, 
 05/09/09, 04:00,  16.1,  95,  19.7,  20.3,  19.8,   0.0,  0.00, 
 05/09/09, 05:00,  16.8,  92,  19.6,  20.1,  19.7,   0.0,  0.00, 
 05/09/09, 06:00,  16.4,  93,  19.5,  20.1,  19.7,   0.0,  0.00, 
 05/09/09, 07:00,  16.4,  97,  19.4,  20.0,  19.7,   0.0,  0.24, 
 05/09/09, 08:00,  18.7,  86,  19.4,  20.0,  19.8,   0.0,  0.87, 
 05/09/09, 09:00,  19.5,  88,  19.5,  20.0,  19.8,   0.0,  0.97, 
 05/09/09, 10:00,  21.5,  82,  19.6,  19.9,  19.8,   0.0,  2.58, 
 05/09/09, 11:00,  22.9,  78,  20.2,  19.9,  19.8,   0.0,  2.00, 
 05/09/09, 12:00,  21.4,  86,  20.8,  19.9,  19.7,   0.0,  1.66, 
 05/09/09, 13:00,  23.2,  76,  21.2,  19.9,  19.8,   0.0,  1.54, 
 05/09/09, 14:00,  22.9,  75,  21.5,  20.0,  19.8,   0.0,  2.12, 
 05/09/09, 15:00,  22.7,  75,  21.7,  20.0,  19.8,   0.0,  2.35, 
 05/09/09, 16:00,  22.6,  72,  21.8,  20.3,  19.8,   0.0,  2.03, 
 05/09/09, 17:00,  21.2,  77,  21.8,  20.4,  19.8,   0.0,  1.08, 
 05/09/09, 18:00,  19.2,  87,  21.7,  20.5,  19.8,   0.0,  0.32, 
 05/09/09, 19:00,  18.8,  92,  21.5,  20.6,  19.8,   0.0,  0.00, 
 05/09/09, 20:00,  17.8,  97,  21.3,  20.6,  19.8,   0.0,  0.00, 
 05/09/09, 21:00,  18.0,  94,  21.1,  20.6,  19.8,   0.0,  0.00, 
 05/09/09, 22:00,  16.9,  99,  20.8,  20.5,  19.7,   0.0,  0.00, 
 05/09/09, 23:00,  17.4,  97,  20.7,  20.6,  19.8,   0.0,  0.00, 
 05/09/10, 00:00,  16.8,  99,  20.6,  20.6,  19.8,   0.0,  0.00, 
 05/09/10, 01:00,  16.1,  99,  20.4,  20.6,  19.9,   0.0,  0.00, 
 05/09/10, 02:00,  15.9,  99,  20.3,  20.4,  19.9,   0.0,  0.00, 
 05/09/10, 03:00,  15.4,  99,  20.1,  20.5,  19.9,   0.0,  0.00, 
 05/09/10, 04:00,  15.2,  99,  19.9,  20.3,  19.8,   0.0,  0.00, 
 05/09/10, 05:00,  15.7,  99,  19.8,  20.3,  19.8,   0.0,  0.00, 
 05/09/10, 06:00,  16.3,  99,  19.6,  20.2,  19.8,   0.0,  0.00, 
 05/09/10, 07:00,  17.7,  98,  19.5,  20.1,  19.9,   0.0,  0.12, 
 05/09/10, 08:00,  18.5,  99,  19.5,  20.1,  19.8,   0.0,  0.58, 
 05/09/10, 09:00,  20.3,  94,  19.6,  20.0,  19.8,   0.0,  1.24, 
 05/09/10, 10:00,  20.1,  93,  19.8,  20.0,  19.9,   0.0,  1.79, 
 05/09/10, 11:00,  20.2,  91,  20.2,  20.0,  19.8,   0.0,  1.26, 
 05/09/10, 12:00,  22.4,  80,  20.6,  20.0,  19.9,   0.0,  2.04, 
 05/09/10, 13:00,  22.4,  83,  21.1,  20.0,  19.9,   0.0,  2.35, 
 05/09/10, 14:00,  22.7,  80,  21.6,  20.0,  19.8,   0.0,  2.23, 
 05/09/10, 15:00,  20.9,  85,  21.8,  20.2,  19.8,   0.0,  1.34, 
 05/09/10, 16:00,  20.8,  85,  21.9,  20.4,  19.8,   0.0,  1.23, 
 05/09/10, 17:00,  20.2,  88,  21.9,  20.5,  19.9,   0.0,  0.62, 
 05/09/10, 18:00,  18.9,  96,  21.8,  20.6,  19.9,   0.5,  0.11, 
 05/09/10, 19:00,  18.5,  96,  21.7,  20.7,  19.9,   0.0,  0.00, 
 05/09/10, 20:00,  18.3,  99,  21.5,  20.7,  19.9,   0.0,  0.00, 
 05/09/10, 21:00,  18.3,  98,  21.4,  20.8,  19.9,   0.0,  0.00, 
 05/09/10, 22:00,  18.2,  96,  21.2,  20.8,  19.9,   0.0,  0.00, 
 05/09/10, 23:00,  18.4,  93,  21.0,  20.8,  19.9,   0.0,  0.00, 
 05/09/11, 00:00,  17.5,  99,  20.8,  20.7,  19.9,   0.0,  0.00, 
 05/09/11, 01:00,  17.9,  96,  20.8,  20.7,  19.9,   0.0,  0.00, 
 05/09/11, 02:00,  17.8,  99,  20.6,  20.7,  19.9,   0.0,  0.00, 
 05/09/11, 03:00,  18.0,  98,  20.5,  20.7,  19.9,   0.0,  0.00, 
 05/09/11, 04:00,  17.8,  99,  20.4,  20.6,  19.9,   0.0,  0.00, 
 05/09/11, 05:00,  18.1,  98,  20.3,  20.5,  19.9,   0.0,  0.00, 
 05/09/11, 06:00,  17.5,  99,  20.3,  20.4,  19.9,   0.0,  0.00, 
 05/09/11, 07:00,  17.9,  99,  20.1,  20.4,  19.9,   0.0,  0.17, 
 05/09/11, 08:00,  18.9,  99,  20.2,  20.4,  20.0,   0.0,  0.48, 
 05/09/11, 09:00,  19.7,  99,  20.2,  20.4,  20.0,   0.0,  0.77, 
 05/09/11, 10:00,  20.1,  94,  20.4,  20.3,  20.0,   0.0,  1.23, 
 05/09/11, 11:00,  20.4,  89,  20.7,  20.3,  20.0,   0.0,  1.17, 
 05/09/11, 12:00,  19.7,  99,  20.9,  20.3,  20.0,   0.0,  0.47, 
 05/09/11, 13:00,  19.1,  99,  21.0,  20.4,  20.0,   1.5,  0.36, 
 05/09/11, 14:00,  19.0,  99,  21.0,  20.4,  20.0,   0.5,  0.43, 
 05/09/11, 15:00,  16.8,  99,  21.1,  20.4,  20.0,   6.0,  0.39, 
 05/09/11, 16:00,  16.8,  99,  21.0,  20.5,  20.0,   0.5,  0.26, 
 05/09/11, 17:00,  16.6,  99,  20.8,  20.4,  20.0,   0.0,  0.15, 
 05/09/11, 18:00,  15.9,  99,  20.7,  20.5,  20.0,   0.5,  0.00, 
 05/09/11, 19:00,  15.5,  99,  20.6,  20.4,  20.0,   0.0,  0.00, 
 05/09/11, 20:00,  15.0,  99,  20.4,  20.4,  19.9,   0.0,  0.00, 
 05/09/11, 21:00,  15.3,  99,  20.3,  20.4,  20.0,   0.0,  0.00, 
 05/09/11, 22:00,  14.6,  99,  20.0,  20.3,  20.0,   0.0,  0.00, 
 05/09/11, 23:00,  14.5,  99,  20.0,  20.4,  20.0,   0.0,  0.00, 
 05/09/12, 00:00,  15.0,  96,  19.8,  20.2,  20.0,   0.0,  0.00, 
 05/09/12, 01:00,  15.1,  94,  19.7,  20.2,  19.9,   0.0,  0.00, 
 05/09/12, 02:00,  14.7,  94,  19.5,  20.1,  20.0,   0.0,  0.00, 
 05/09/12, 03:00,  14.5,  96,  19.4,  20.1,  19.9,   0.0,  0.00, 
 05/09/12, 04:00,  14.5,  97,  19.1,  20.0,  19.9,   0.0,  0.00, 
 05/09/12, 05:00,  14.9,  93,  18.9,  20.0,  19.9,   0.0,  0.00, 
 05/09/12, 06:00,  14.6,  99,  18.8,  19.8,  19.9,   0.0,  0.00, 
 05/09/12, 07:00,  16.5,  99,  18.6,  19.9,  19.9,   0.5,  0.39, 
 05/09/12, 08:00,  19.2,  87,  18.5,  19.7,  20.0,   0.0,  1.22, 
 05/09/12, 09:00,  20.4,  81,  18.6,  19.7,  20.0,   0.0,  1.94, 
 05/09/12, 10:00,  21.3,  77,  18.7,  19.6,  19.9,   0.0,  2.52, 
 05/09/12, 11:00,  22.7,  77,  19.4,  19.6,  19.9,   0.0,  2.97, 
 05/09/12, 12:00,  23.2,  76,  20.3,  19.5,  19.8,   0.0,  3.11, 
 05/09/12, 13:00,  24.5,  72,  21.4,  19.6,  19.8,   0.0,  3.11, 
 05/09/12, 14:00,  23.9,  72,  22.0,  19.7,  19.8,   0.0,  2.88, 
 05/09/12, 15:00,  22.9,  76,  22.3,  19.9,  19.9,   0.0,  2.23, 
 05/09/12, 16:00,  22.8,  81,  22.2,  20.1,  19.9,   0.0,  1.48, 
 05/09/12, 17:00,  21.2,  85,  22.2,  20.3,  19.7,   0.0,  1.09, 
 05/09/12, 18:00,  19.7,  88,  21.9,  20.5,  19.8,   0.0,  0.26, 
 05/09/12, 19:00,  18.4,  96,  21.8,  20.6,  19.8,   0.0,  0.00, 
 05/09/12, 20:00,  18.7,  94,  21.6,  20.7,  19.8,   0.0,  0.00, 
 05/09/12, 21:00,  18.4,  94,  21.4,  20.7,  19.8,   0.0,  0.00, 
 05/09/12, 22:00,  18.5,  95,  21.2,  20.7,  19.8,   0.0,  0.00, 
 05/09/12, 23:00,  18.1,  99,  21.0,  20.7,  19.8,   0.0,  0.00, 
 05/09/13, 00:00,  17.8,  99,  20.9,  20.7,  19.9,   0.0,  0.00, 
 05/09/13, 01:00,  17.3,  99,  20.7,  20.7,  19.9,   0.0,  0.00, 
 05/09/13, 02:00,  16.2,  99,  20.5,  20.7,  19.9,   0.0,  0.00, 
 05/09/13, 03:00,  16.3,  99,  20.3,  20.5,  19.8,   0.0,  0.00, 
 05/09/13, 04:00,  16.6,  99,  20.2,  20.5,  19.8,   0.0,  0.00, 
 05/09/13, 05:00,  16.0,  99,  20.0,  20.5,  19.9,   0.0,  0.00, 
 05/09/13, 06:00,  15.5,  99,  19.9,  20.3,  19.8,   0.0,  0.00, 
 05/09/13, 07:00,  17.5,  99,  19.7,  20.4,  19.9,   0.0,  0.28, 
 05/09/13, 08:00,  18.4,  96,  19.7,  20.2,  19.8,   0.0,  0.70, 
 05/09/13, 09:00,  20.0,  88,  19.7,  20.2,  19.9,   0.0,  1.25, 
 05/09/13, 10:00,  22.5,  80,  19.9,  20.2,  19.9,   0.0,  2.39, 
 05/09/13, 11:00,  22.0,  76,  20.4,  20.1,  19.9,   0.0,  2.01, 
 05/09/13, 12:00,  23.4,  72,  21.1,  20.0,  19.8,   0.0,  2.88, 
 05/09/13, 13:00,  22.7,  72,  21.9,  20.2,  19.9,   0.0,  2.53, 
 05/09/13, 14:00,  22.9,  70,  22.4,  20.3,  19.9,   0.0,  2.26, 
 05/09/13, 15:00,  22.3,  76,  22.5,  20.4,  19.8,   0.0,  1.47, 
 05/09/13, 16:00,  21.5,  77,  22.4,  20.6,  19.9,   0.0,  1.21, 
 05/09/13, 17:00,  20.8,  86,  22.3,  20.7,  19.8,   0.0,  0.77, 
 05/09/13, 18:00,  19.2,  92,  22.0,  20.8,  19.9,   0.0,  0.20, 
 05/09/13, 19:00,  17.9,  99,  21.9,  20.9,  19.9,   0.0,  0.00, 
 05/09/13, 20:00,  17.1,  99,  21.7,  21.0,  19.9,   0.0,  0.00, 
 05/09/13, 21:00,  16.8,  99,  21.4,  21.0,  19.9,   0.0,  0.00, 
 05/09/13, 22:00,  16.9,  99,  21.2,  21.0,  19.9,   0.0,  0.00, 
 05/09/13, 23:00,  18.2,  95,  20.9,  21.0,  20.0,   0.0,  0.00, 
 05/09/14, 00:00,  17.3,  98,  20.7,  20.8,  20.0,   0.0,  0.00, 
 05/09/14, 01:00,  17.1,  97,  20.5,  20.8,  20.0,   0.0,  0.00, 
 05/09/14, 02:00,  18.0,  90,  20.4,  20.8,  20.0,   0.0,  0.00, 
 05/09/14, 03:00,  18.5,  85,  20.2,  20.7,  19.9,   0.0,  0.00, 
 05/09/14, 04:00,  19.2,  79,  20.1,  20.7,  20.0,   0.0,  0.00, 
 05/09/14, 05:00,  18.5,  84,  19.9,  20.6,  20.0,   0.0,  0.00, 
 05/09/14, 06:00,  18.0,  89,  19.9,  20.4,  19.9,   0.0,  0.00, 
 05/09/14, 07:00,  18.9,  86,  19.8,  20.3,  20.0,   0.0,  0.15, 
 05/09/14, 08:00,  19.6,  86,  19.7,  20.4,  20.0,   0.0,  0.62, 
 05/09/14, 09:00,  18.5,  89,  19.7,  20.2,  19.9,   0.0,  0.43, 
 05/09/14, 10:00,  19.7,  90,  19.8,  20.2,  19.9,   0.0,  1.04, 
 05/09/14, 11:00,  20.3,  89,  20.0,  20.2,  19.9,   0.0,  1.57, 
 05/09/14, 12:00,  21.1,  88,  20.4,  20.2,  20.0,   0.0,  1.37, 
 05/09/14, 13:00,  19.3,  95,  20.7,  20.1,  20.0,   0.0,  0.43, 
 05/09/14, 14:00,  20.8,  96,  20.8,  20.2,  20.0,   0.0,  1.74, 
 05/09/14, 15:00,  18.9,  97,  20.9,  20.2,  19.9,   0.0,  0.43, 
 05/09/14, 16:00,  19.7,  93,  21.1,  20.3,  20.0,   0.0,  0.55, 
 05/09/14, 17:00,  18.3,  99,  21.1,  20.4,  20.0,   0.0,  0.32, 
 05/09/14, 18:00,  18.0,  99,  21.0,  20.4,  20.0,   0.0,  0.12, 
 05/09/14, 19:00,  17.4,  99,  20.8,  20.4,  20.0,   0.5,  0.00, 
 05/09/14, 20:00,  16.3,  98,  20.8,  20.5,  20.0,   0.5,  0.00, 
 05/09/14, 21:00,  16.0,  99,  20.6,  20.4,  19.9,   0.0,  0.00, 
 05/09/14, 22:00,  15.0,  99,  20.4,  20.4,  20.0,   1.0,  0.00, 
 05/09/14, 23:00,  14.5,  99,  20.2,  20.4,  19.9,   0.5,  0.00, 
 05/09/15, 00:00,  14.1,  99,  20.1,  20.4,  20.0,   0.0,  0.00, 
 05/09/15, 01:00,  13.7,  99,  19.9,  20.3,  19.9,   0.0,  0.00, 
 05/09/15, 02:00,  13.1,  99,  19.8,  20.2,  19.9,   0.5,  0.00, 
 05/09/15, 03:00,  12.9,  99,  19.6,  20.2,  19.9,   0.0,  0.00, 
 05/09/15, 04:00,  12.5,  99,  19.4,  20.1,  20.0,   0.0,  0.00, 
 05/09/15, 05:00,  12.2,  99,  19.1,  20.0,  20.0,   0.0,  0.00, 
 05/09/15, 06:00,  12.5,  99,  19.0,  20.0,  20.0,   0.0,  0.00, 
 05/09/15, 07:00,  12.5,  99,  18.9,  20.0,  19.9,   0.0,  0.11, 
 05/09/15, 08:00,  12.8,  99,  18.8,  19.8,  19.9,   0.0,  0.50, 
 05/09/15, 09:00,  13.6,  99,  18.7,  19.7,  19.9,   0.0,  1.14, 
 05/09/15, 10:00,  14.1,  99,  18.8,  19.7,  19.8,   0.0,  1.13, 
 05/09/15, 11:00,  15.2,  89,  19.0,  19.7,  19.9,   0.0,  2.08, 
 05/09/15, 12:00,  16.1,  84,  19.5,  19.6,  19.8,   0.0,  2.35, 
 05/09/15, 13:00,  15.9,  83,  20.0,  19.6,  19.8,   0.0,  2.62, 
 05/09/15, 14:00,  16.9,  78,  20.4,  19.5,  19.8,   0.0,  1.91, 
 05/09/15, 15:00,  15.8,  88,  20.5,  19.7,  19.8,   0.5,  1.11, 
 05/09/15, 16:00,  16.0,  87,  20.5,  19.7,  19.8,   0.0,  0.72, 
 05/09/15, 17:00,  14.6,  93,  20.5,  19.8,  19.8,   0.0,  0.28, 
 05/09/15, 18:00,  13.7,  99,  20.3,  19.8,  19.7,   0.0,  0.05, 
 05/09/15, 19:00,  13.0,  99,  20.1,  20.0,  19.7,   0.0,  0.00, 
 05/09/15, 20:00,  12.6,  99,  19.9,  19.9,  19.7,   0.0,  0.00, 
 05/09/15, 21:00,  12.3,  99,  19.8,  20.0,  19.7,   0.0,  0.00, 
 05/09/15, 22:00,  12.1,  99,  19.6,  19.9,  19.7,   0.0,  0.00, 
 05/09/15, 23:00,  11.7,  99,  19.4,  20.0,  19.7,   0.0,  0.00, 
 05/09/16, 00:00,  10.5,  99,  19.1,  19.8,  19.7,   0.0,  0.00, 
 05/09/16, 01:00,  11.7,  99,  18.8,  19.7,  19.7,   0.0,  0.00, 